Torna al catalogo

COSMOS 249 DEB

AttivoLEO
NORAD 19362·DEBRIS·🇷🇺 Russia

Lanciato Oct 20, 1968 da Baikonur Cosmodrome

Loading…

Prossimi Passaggi (prossime 24 ore)

TLE

AggiornatoSource: Space-Track

Epoca: Sep 14, 2026, 20:09 UTC

1 19362U 68091DJ  26257.83970079  .00008472  00000-0  10511-2 0  9991
2 19362  62.7631  58.6208 0466243  69.5797 295.4688 14.28076175932765

Traccia COSMOS 249 DEB in tempo reale con AllMySat

Download on the App Store